[[{"header":{"parameterUnit":"m.s-1","parameterCategory":2,"la1":30.2991,"la2":30.254,"lo1":-89.0895,"lo2":-89.0444,"dy":0.0017,"dx":0.0017,"nx":28,"ny":28,"refTime":"2023-10-16T09:00:00:Z","depth":"0","parameterNumber":2,"parameterNumberName":"U-component_of_CURRENTS"},"data":[0,0,0,0,0,0,0,0,0,0,0,0,0,0,0,0,0,0,0,0,0,0,0,0,0,0,0,0,0,0,0,0,0,0,0,0,0,0,0,0,0,0,0,0,0,0,0,0,0,0,0,0,0,0,0,0,0,0,-0.1581,-0.1581,0,-0.1591,-0.1591,-0.1591,-0.1583,-0.1583,-0.1582,-0.1582,-0.1619,-0.162,-0.1621,0,0,0,0,0,0,0,0,0,0,0,0,0,-0.1581,-0.1581,-0.1581,-0.1581,-0.1581,-0.1591,-0.1591,-0.1591,-0.1583,-0.1583,-0.1582,-0.1582,-0.1618,-0.162,-0.1621,0,0,0,0,0,0,0,0,0,0,0,0,0,-0.1585,-0.1581,-0.1581,-0.1578,-0.1578,-0.1591,-0.1591,-0.1592,-0.1583,-0.1583,-0.1582,-0.1582,-0.1618,-0.162,-0.1622,-0.1645,0,0,-0.1628,-0.1629,0,0,0,0,0,0,0,0,-0.1585,-0.1585,-0.1579,-0.1579,-0.1578,-0.1585,-0.1605,-0.1611,-0.1583,-0.1581,-0.1582,-0.1581,-0.161,-0.1613,-0.1616,-0.1647,-0.1648,-0.1628,-0.1629,-0.163,-0.163,0,0,0,0,0,0,0,-0.1585,-0.1585,-0.1585,-0.1579,-0.1579,-0.1585,-0.1585,-0.1606,-0.1599,-0.1582,-0.1581,-0.1582,-0.161,-0.1614,-0.1617,-0.1649,-0.1628,-0.163,-0.1631,-0.1632,-0.1792,-0.1795,0,0,0,0,0,0,-0.1582,-0.1584,-0.1585,-0.1586,-0.158,-0.1586,-0.1586,-0.1584,-0.1599,-0.16,-0.1582,-0.1582,-0.1611,-0.1614,-0.1618,-0.1712,-0.163,-0.1632,-0.1633,-0.1789,-0.1793,-0.1796,0,0,0,0,0,0,-0.1582,-0.1582,-0.1585,-0.1585,-0.1586,-0.1586,-0.1584,-0.1584,-0.1584,-0.1599,-0.1601,-0.1582,-0.161,-0.1615,-0.1645,-0.1711,-0.1633,-0.1634,-0.1785,-0.179,-0.1794,-0.1859,0,0,0,0,0,0,-0.1582,-0.1582,-0.158,-0.1585,-0.1586,-0.1595,-0.1585,-0.1585,-0.1585,-0.1584,-0.1599,-0.1602,-0.161,-0.1642,-0.1647,-0.1712,-0.1636,-0.1781,-0.1787,-0.1793,-0.1853,-0.1865,-0.1876,0,0,0,0,0,-0.1582,-0.1582,-0.158,-0.158,-0.1583,-0.1596,-0.1597,-0.1596,-0.1586,-0.1592,-0.1606,-0.1601,-0.1684,-0.1645,-0.165,-0.1718,-0.1779,-0.1786,-0.1792,-0.1848,-0.1863,-0.1875,0,0,0,0,0,0,-0.1583,-0.1581,-0.1579,-0.1579,-0.1588,-0.1594,-0.1597,-0.1595,-0.1609,-0.1607,-0.1617,-0.1622,-0.1688,-0.1689,-0.1646,-0.1786,-0.1741,-0.1749,-0.1781,-0.1795,-0.1807,-0.1815,-0.1638,0,0,0,0,0,-0.1583,-0.1578,-0.1585,-0.1585,-0.1589,-0.1592,-0.1595,-0.1597,-0.1609,-0.1613,-0.1626,-0.1661,-0.1723,-0.1741,-0.1782,-0.1834,-0.1771,-0.1892,-0.1903,-0.1912,-0.1926,-0.1825,-0.1826,-0.1819,-0.1819,-0.1818,0,0,-0.1582,-0.1581,-0.1578,-0.1585,-0.1588,-0.1627,-0.1593,-0.16,-0.1658,-0.1617,-0.1683,-0.1694,-0.1747,-0.1823,-0.1853,-0.1826,-0.1891,-0.1921,-0.1928,-0.1938,-0.1832,-0.1831,-0.1831,-0.1823,-0.1822,-0.1822,0,0,-0.1587,-0.1579,-0.1582,-0.1603,-0.1613,-0.1634,-0.1638,-0.1648,-0.1676,-0.1726,-0.1743,-0.1779,-0.1842,-0.1901,-0.1942,-0.2039,-0.1956,-0.2063,-0.2121,-0.2022,-0.2019,-0.2017,-0.1958,-0.195,-0.2064,-0.2064,-0.2064,0,-0.1588,-0.1616,-0.1587,-0.1615,-0.1667,-0.1646,-0.1708,-0.1733,-0.1758,-0.1788,-0.1759,-0.185,-0.1896,-0.2004,-0.2064,-0.2067,-0.1985,-0.2058,-0.2029,-0.2025,-0.2021,-0.1961,-0.1951,-0.2068,-0.2068,-0.2067,-0.2067,0,-0.1608,-0.1651,-0.166,-0.1708,-0.1746,-0.1795,-0.1841,-0.187,-0.1891,-0.1905,-0.1972,-0.1993,-0.2033,-0.2084,-0.2118,-0.2155,-0.21,-0.2048,-0.1977,-0.2024,-0.1961,-0.1948,-0.2074,-0.2072,-0.2071,-0.207,0,0,-0.159,-0.1667,-0.1676,-0.1753,-0.1822,-0.1865,-0.1957,-0.2041,-0.2062,-0.2082,-0.2105,-0.2242,-0.2174,-0.2219,-0.2232,-0.2189,-0.2131,-0.2117,-0.2109,-0.2031,-0.1908,-0.1876,-0.1858,-0.2027,-0.2025,-0.2023,-0.188,0,-0.1641,-0.175,-0.177,-0.1914,-0.2006,-0.2043,-0.212,-0.2176,-0.2184,-0.2176,-0.2199,-0.2206,-0.2249,-0.2225,-0.2203,-0.2138,-0.2098,-0.2176,-0.19,-0.1895,-0.1833,-0.1843,-0.1787,-0.1653,-0.1867,-0.1865,-0.1863,0,-0.1667,-0.1771,-0.1922,-0.2073,-0.2103,-0.2166,-0.2278,-0.2332,-0.2317,-0.229,-0.2265,-0.2213,-0.2228,-0.2189,-0.2099,-0.2123,-0.2044,-0.1981,-0.197,-0.1908,-0.1838,-0.1641,-0.1621,-0.1556,-0.1844,-0.1845,-0.1847,0,-0.1723,-0.1875,-0.2026,-0.2086,-0.2227,-0.2294,-0.2348,-0.2365,-0.2362,-0.2313,-0.2229,-0.2214,-0.2144,-0.2056,-0.1983,-0.1996,-0.1812,-0.1794,-0.1701,-0.1698,-0.1589,-0.158,-0.1449,-0.1695,-0.1695,-0.1696,-0.1696,0,-0.1798,-0.1909,-0.206,-0.2152,-0.229,-0.2354,-0.2394,-0.2424,-0.2355,-0.2294,-0.2259,-0.2168,-0.2086,-0.1978,-0.1929,-0.1783,-0.1757,-0.1717,-0.1651,-0.1618,-0.1613,-0.1502,-0.1469,-0.169,-0.1691,-0.1693,-0.1693,0,-0.1811,-0.1913,-0.2098,-0.2281,-0.2316,-0.241,-0.2402,-0.2368,-0.233,-0.2226,-0.2189,-0.2089,-0.1954,-0.188,-0.1717,-0.1687,-0.1501,-0.1521,-0.1522,-0.146,-0.1336,-0.131,-0.1123,-0.1074,-0.139,-0.1388,-0.1387,0,-0.1823,-0.1921,-0.2159,-0.222,-0.2295,-0.2378,-0.2361,-0.2356,-0.2281,-0.2173,-0.21,-0.1963,-0.185,-0.164,-0.1543,-0.1416,-0.1384,-0.1297,-0.1346,-0.1325,-0.1245,-0.1258,-0.1233,-0.1232,-0.1229,-0.1227,-0.1225,0,-0.1852,-0.193,-0.2083,-0.2205,-0.2255,-0.2277,-0.2265,-0.2208,-0.2149,-0.2066,-0.1934,-0.185,-0.1663,-0.1499,-0.1357,-0.1287,-0.1227,-0.1249,-0.1188,-0.1092,-0.1129,-0.105,-0.1368,-0.1206,-0.1208,-0.121,-0.1211,-0.1211,-0.1838,-0.1936,-0.2078,-0.2172,-0.2204,-0.2152,-0.2082,-0.2038,-0.1946,-0.1778,-0.1784,-0.1615,-0.146,-0.1254,-0.1179,-0.1015,-0.1061,-0.0967,-0.0932,-0.0947,-0.0916,-0.1232,-0.1021,-0.1022,-0.1022,-0.1023,-0.1023,0,-0.1791,-0.1876,-0.1981,-0.2075,-0.2003,-0.2049,-0.196,-0.1831,-0.169,-0.1627,-0.1504,-0.1321,-0.1144,-0.1016,-0.0836,-0.0724,-0.0726,-0.0663,-0.0659,-0.0645,-0.0867,-0.088,-0.0674,-0.0674,-0.0675,-0.0675,-0.0675,-0.0675,-0.1776,-0.184,-0.1902,-0.1824,-0.182,-0.164,-0.1552,-0.1454,-0.1372,-0.1205,-0.1101,-0.1053,-0.0925,-0.0691,-0.0508,-0.0476,-0.0403,-0.0375,-0.0366,-0.0518,-0.0545,-0.0571,-0.0577,-0.0311,-0.0311,-0.0162,-0.016,-0.0158]},{"header":{"parameterUnit":"m.s-1","parameterCategory":2,"la1":30.2991,"la2":30.254,"lo1":-89.0895,"lo2":-89.0444,"dy":0.0017,"dx":0.0017,"nx":28,"ny":28,"refTime":"2023-10-16T09:00:00:Z","depth":"0","parameterNumber":3,"parameterNumberName":"V-component_of_CURRENTS"},"data":[0,0,0,0,0,0,0,0,0,0,0,0,0,0,0,0,0,0,0,0,0,0,0,0,0,0,0,0,0,0,0,0,0,0,0,0,0,0,0,0,0,0,0,0,0,0,0,0,0,0,0,0,0,0,0,0,0,0,-0.0592,-0.0592,0,-0.0611,-0.0611,-0.0611,-0.0612,-0.0612,-0.0612,-0.0612,-0.0575,-0.0574,-0.0573,0,0,0,0,0,0,0,0,0,0,0,0,0,-0.0538,-0.0539,-0.0592,-0.0592,-0.0592,-0.0611,-0.0611,-0.0611,-0.0612,-0.0612,-0.0612,-0.0612,-0.0575,-0.0574,-0.0573,0,0,0,0,0,0,0,0,0,0,0,0,0,-0.0558,-0.0539,-0.0592,-0.0596,-0.0597,-0.061,-0.0611,-0.0611,-0.0612,-0.0612,-0.0612,-0.0611,-0.0575,-0.0574,-0.0573,-0.0568,0,0,-0.0569,-0.0568,0,0,0,0,0,0,0,0,-0.0557,-0.056,-0.0595,-0.0596,-0.0596,-0.061,-0.0578,-0.0594,-0.0612,-0.0605,-0.0612,-0.0611,-0.0582,-0.058,-0.0583,-0.0566,-0.0565,-0.0569,-0.0568,-0.0567,-0.0567,0,0,0,0,0,0,0,-0.0556,-0.0559,-0.0598,-0.0595,-0.0596,-0.0591,-0.0593,-0.0581,-0.0592,-0.0605,-0.0606,-0.061,-0.0582,-0.0585,-0.0582,-0.0564,-0.0569,-0.0568,-0.0567,-0.0566,-0.0565,-0.0566,0,0,0,0,0,0,-0.0557,-0.0558,-0.0597,-0.0599,-0.0577,-0.0592,-0.0595,-0.0605,-0.0594,-0.0593,-0.061,-0.061,-0.0587,-0.0584,-0.0581,-0.0591,-0.0567,-0.0566,-0.0565,-0.0565,-0.0566,-0.0566,0,0,0,0,0,0,-0.0556,-0.0561,-0.0597,-0.0579,-0.0583,-0.0593,-0.0604,-0.0605,-0.0609,-0.0598,-0.0596,-0.0613,-0.0587,-0.0583,-0.0584,-0.0589,-0.0566,-0.0564,-0.0564,-0.0565,-0.0566,-0.06,0,0,0,0,0,0,-0.0554,-0.056,-0.0566,-0.058,-0.0585,-0.0607,-0.0604,-0.0606,-0.0613,-0.0613,-0.06,-0.0596,-0.0586,-0.0587,-0.0583,-0.0586,-0.0563,-0.0563,-0.0564,-0.0566,-0.0598,-0.0602,-0.0605,0,0,0,0,0,-0.0552,-0.056,-0.0566,-0.0571,-0.0593,-0.0608,-0.061,-0.0615,-0.0613,-0.0617,-0.0617,-0.0597,-0.0593,-0.0586,-0.0582,-0.0585,-0.0562,-0.0564,-0.0566,-0.0596,-0.0601,-0.0605,0,0,0,0,0,0,-0.0535,-0.0561,-0.0568,-0.0582,-0.0596,-0.0608,-0.0612,-0.0616,-0.062,-0.0619,-0.0607,-0.0604,-0.0607,-0.0594,-0.0587,-0.0591,-0.0574,-0.0575,-0.0598,-0.0603,-0.0607,-0.0554,-0.0562,0,0,0,0,0,-0.0536,-0.0551,-0.0572,-0.0582,-0.059,-0.0602,-0.0607,-0.0613,-0.0619,-0.0621,-0.0615,-0.061,-0.0611,-0.0606,-0.0602,-0.0601,-0.0566,-0.0601,-0.0605,-0.0608,-0.0563,-0.0508,-0.0502,-0.0572,-0.0572,-0.0572,0,0,-0.0532,-0.0548,-0.0556,-0.058,-0.0589,-0.0616,-0.0604,-0.0616,-0.0636,-0.0615,-0.0632,-0.0623,-0.0615,-0.0621,-0.062,-0.0609,-0.0587,-0.061,-0.0613,-0.0565,-0.0509,-0.0502,-0.0495,-0.0573,-0.0573,-0.0573,0,0,-0.0534,-0.0546,-0.0562,-0.0584,-0.0605,-0.0617,-0.0622,-0.0638,-0.0641,-0.0662,-0.065,-0.0625,-0.065,-0.062,-0.0616,-0.0632,-0.0612,-0.0659,-0.0629,-0.0578,-0.0571,-0.0563,-0.0578,-0.0572,-0.0658,-0.0658,-0.0658,0,-0.0527,-0.0567,-0.0566,-0.0596,-0.0621,-0.0623,-0.0654,-0.066,-0.0674,-0.0651,-0.0674,-0.0644,-0.0637,-0.0604,-0.0618,-0.0633,-0.0632,-0.0615,-0.058,-0.0571,-0.0563,-0.0579,-0.0571,-0.0659,-0.0659,-0.0659,-0.0659,0,-0.055,-0.0592,-0.0604,-0.065,-0.0661,-0.0695,-0.0707,-0.07,-0.0707,-0.0695,-0.0664,-0.0651,-0.0611,-0.0629,-0.0633,-0.0576,-0.0608,-0.0594,-0.0561,-0.0557,-0.0577,-0.0568,-0.0662,-0.0661,-0.0661,-0.066,0,0,-0.0528,-0.0609,-0.0618,-0.065,-0.0704,-0.0706,-0.0724,-0.0717,-0.0682,-0.0691,-0.0645,-0.0637,-0.0586,-0.0574,-0.0566,-0.0523,-0.0496,-0.054,-0.0536,-0.0543,-0.0441,-0.051,-0.0507,-0.0488,-0.0485,-0.0483,-0.0502,0,-0.0561,-0.0647,-0.0661,-0.0721,-0.0775,-0.0763,-0.0763,-0.0738,-0.0716,-0.0665,-0.0616,-0.0579,-0.0586,-0.0559,-0.0516,-0.0491,-0.0464,-0.0495,-0.045,-0.0449,-0.0498,-0.0494,-0.0517,-0.0538,-0.0493,-0.0492,-0.0491,0,-0.0586,-0.0657,-0.0747,-0.077,-0.0775,-0.0789,-0.0748,-0.0737,-0.0656,-0.0624,-0.0554,-0.0521,-0.0454,-0.0465,-0.0397,-0.0427,-0.0422,-0.0413,-0.0413,-0.0437,-0.0497,-0.0522,-0.0524,-0.0518,-0.0477,-0.0478,-0.0479,0,-0.0615,-0.0688,-0.0768,-0.0798,-0.0836,-0.0818,-0.0792,-0.0721,-0.0675,-0.0581,-0.0538,-0.0456,-0.042,-0.0378,-0.0376,-0.0381,-0.0323,-0.0325,-0.0384,-0.0393,-0.0375,-0.0385,-0.0338,-0.0252,-0.0252,-0.0252,-0.0252,0,-0.067,-0.0717,-0.0783,-0.0847,-0.0844,-0.0834,-0.0774,-0.0722,-0.0637,-0.0573,-0.0507,-0.0462,-0.0392,-0.0366,-0.0359,-0.0363,-0.0311,-0.0359,-0.0378,-0.04,-0.0412,-0.0375,-0.0346,-0.0253,-0.0253,-0.0253,-0.0252,0,-0.0712,-0.0766,-0.0854,-0.0905,-0.0882,-0.0878,-0.0776,-0.0719,-0.0643,-0.0567,-0.0542,-0.0457,-0.0424,-0.0395,-0.0339,-0.0353,-0.0333,-0.0357,-0.0427,-0.0453,-0.0497,-0.047,-0.0376,-0.035,-0.0408,-0.0409,-0.041,0,-0.0743,-0.0821,-0.0905,-0.0905,-0.0928,-0.0888,-0.0836,-0.0741,-0.0686,-0.0578,-0.0556,-0.0495,-0.047,-0.0441,-0.0434,-0.044,-0.0384,-0.0469,-0.0447,-0.0485,-0.0468,-0.0429,-0.0409,-0.0472,-0.0474,-0.0475,-0.0476,0,-0.0832,-0.0882,-0.096,-0.0975,-0.0947,-0.0895,-0.0826,-0.0786,-0.0681,-0.063,-0.058,-0.0554,-0.0528,-0.0537,-0.0545,-0.0534,-0.0445,-0.0499,-0.048,-0.0453,-0.0455,-0.0447,-0.0527,-0.0488,-0.0487,-0.0486,-0.0485,-0.0485,-0.0876,-0.0943,-0.1029,-0.1007,-0.0974,-0.0915,-0.0854,-0.0803,-0.0733,-0.0669,-0.0646,-0.0626,-0.062,-0.0625,-0.0624,-0.0609,-0.0537,-0.0589,-0.0543,-0.0494,-0.0474,-0.0619,-0.0635,-0.0635,-0.0635,-0.0634,-0.0634,0,-0.0931,-0.0983,-0.1009,-0.0996,-0.0945,-0.0917,-0.084,-0.0786,-0.0736,-0.0735,-0.071,-0.0707,-0.0728,-0.0702,-0.0694,-0.0669,-0.0602,-0.0621,-0.0541,-0.0509,-0.0595,-0.0605,-0.0685,-0.0685,-0.0685,-0.0685,-0.0685,-0.0685,-0.0949,-0.1014,-0.103,-0.0959,-0.092,-0.085,-0.081,-0.0764,-0.0748,-0.072,-0.0724,-0.0733,-0.0651,-0.0654,-0.0639,-0.0628,-0.0551,-0.0548,-0.0489,-0.0543,-0.0535,-0.0528,-0.0532,-0.0594,-0.0594,-0.0409,-0.0407,-0.0406]}],[{"header":{"parameterUnit":"m.s-1","parameterCategory":2,"la1":30.2991,"la2":30.254,"lo1":-89.0895,"lo2":-89.0444,"dy":0.0017,"dx":0.0017,"nx":28,"ny":28,"refTime":"2023-10-16T09:00:00:Z","depth":"2","parameterNumber":2,"parameterNumberName":"U-component_of_CURRENTS"},"data":[0,0,0,0,0,0,0,0,0,0,0,0,0,0,0,0,0,0,0,0,0,0,0,0,0,0,0,0,0,0,0,0,0,0,0,0,0,0,0,0,0,0,0,0,0,0,0,0,0,0,0,0,0,0,0,0,0,0,-0.154,-0.154,0,-0.1543,-0.1543,-0.1543,-0.1535,-0.1534,-0.1534,-0.1534,-0.1569,-0.1571,-0.1572,0,0,0,0,0,0,0,0,0,0,0,0,0,-0.1551,-0.1551,-0.154,-0.154,-0.154,-0.1543,-0.1543,-0.1544,-0.1535,-0.1534,-0.1534,-0.1533,-0.1569,-0.1571,-0.1572,0,0,0,0,0,0,0,0,0,0,0,0,0,-0.155,-0.1551,-0.154,-0.1535,-0.1535,-0.1543,-0.1543,-0.1544,-0.1535,-0.1534,-0.1534,-0.1533,-0.1569,-0.157,-0.1572,-0.1594,0,0,-0.1578,-0.1579,0,0,0,0,0,0,0,0,-0.155,-0.155,-0.1536,-0.1536,-0.1535,-0.1538,-0.1561,-0.1562,-0.1535,-0.1535,-0.1534,-0.1533,-0.1562,-0.1564,-0.1566,-0.1595,-0.1597,-0.1578,-0.1579,-0.158,-0.1581,0,0,0,0,0,0,0,-0.155,-0.155,-0.1542,-0.1536,-0.1536,-0.1542,-0.1541,-0.1561,-0.1552,-0.1535,-0.1534,-0.1534,-0.1562,-0.1564,-0.1567,-0.1597,-0.1578,-0.158,-0.1581,-0.1582,-0.1719,-0.1721,0,0,0,0,0,0,-0.1548,-0.155,-0.1541,-0.1542,-0.1541,-0.1542,-0.1541,-0.1538,-0.1551,-0.1552,-0.1535,-0.1534,-0.1561,-0.1565,-0.1568,-0.1655,-0.158,-0.1582,-0.1583,-0.1717,-0.172,-0.1722,0,0,0,0,0,0,-0.1548,-0.1547,-0.1541,-0.1546,-0.1545,-0.1542,-0.1539,-0.1538,-0.1537,-0.155,-0.1552,-0.1534,-0.1561,-0.1566,-0.1594,-0.1654,-0.1583,-0.1584,-0.1714,-0.1717,-0.1721,-0.1789,0,0,0,0,0,0,-0.1548,-0.1547,-0.1545,-0.1545,-0.1545,-0.1549,-0.1539,-0.1538,-0.1538,-0.1537,-0.1551,-0.1554,-0.1561,-0.1591,-0.1596,-0.1655,-0.1586,-0.171,-0.1715,-0.172,-0.1784,-0.1795,-0.1804,0,0,0,0,0,-0.1549,-0.1547,-0.1544,-0.1544,-0.1541,-0.1549,-0.155,-0.1547,-0.1538,-0.1543,-0.1556,-0.1553,-0.1625,-0.1593,-0.1599,-0.166,-0.1708,-0.1714,-0.1719,-0.1779,-0.1793,-0.1804,0,0,0,0,0,0,-0.1554,-0.1546,-0.1543,-0.154,-0.1546,-0.1548,-0.1549,-0.1547,-0.156,-0.1558,-0.1568,-0.1573,-0.1628,-0.163,-0.1595,-0.1717,-0.1674,-0.1681,-0.1718,-0.1731,-0.1741,-0.1755,-0.1588,0,0,0,0,0,-0.1553,-0.1547,-0.1549,-0.1547,-0.1548,-0.1548,-0.155,-0.155,-0.156,-0.1564,-0.1576,-0.1606,-0.1657,-0.1677,-0.1708,-0.176,-0.1704,-0.181,-0.182,-0.1829,-0.1846,-0.1785,-0.179,-0.1741,-0.1741,-0.1741,0,0,-0.1553,-0.1549,-0.1545,-0.1547,-0.1548,-0.1573,-0.1548,-0.1553,-0.159,-0.1568,-0.1615,-0.1634,-0.1677,-0.1745,-0.1772,-0.1752,-0.1812,-0.1836,-0.1843,-0.1856,-0.1791,-0.1795,-0.1799,-0.1745,-0.1744,-0.1743,0,0,-0.1557,-0.1549,-0.1548,-0.1563,-0.1568,-0.158,-0.1582,-0.1589,-0.1606,-0.1645,-0.1662,-0.1712,-0.1758,-0.1819,-0.1855,-0.194,-0.1864,-0.1954,-0.2021,-0.1962,-0.1964,-0.1965,-0.1879,-0.1872,-0.1963,-0.1963,-0.1963,0,-0.156,-0.1573,-0.1552,-0.1571,-0.1602,-0.1588,-0.1626,-0.1644,-0.1664,-0.169,-0.1669,-0.1763,-0.1808,-0.1912,-0.1969,-0.1967,-0.1891,-0.1967,-0.197,-0.1971,-0.1971,-0.1882,-0.1874,-0.1967,-0.1967,-0.1966,-0.1966,0,-0.1573,-0.1598,-0.1604,-0.1632,-0.1655,-0.1686,-0.1716,-0.1745,-0.176,-0.1771,-0.1839,-0.1879,-0.1939,-0.1978,-0.2015,-0.2075,-0.2004,-0.1979,-0.1928,-0.1979,-0.1883,-0.1873,-0.1973,-0.1971,-0.197,-0.1969,0,0,-0.1558,-0.1607,-0.1613,-0.1655,-0.1704,-0.1725,-0.18,-0.1861,-0.1888,-0.1911,-0.1942,-0.2077,-0.2061,-0.2105,-0.2137,-0.2121,-0.2086,-0.2067,-0.2062,-0.1962,-0.1907,-0.18,-0.1777,-0.2031,-0.203,-0.203,-0.1829,0,-0.159,-0.1653,-0.167,-0.1755,-0.1806,-0.1844,-0.1911,-0.1957,-0.1973,-0.1986,-0.2029,-0.2049,-0.2118,-0.2124,-0.2141,-0.2093,-0.2066,-0.2141,-0.1891,-0.1884,-0.1766,-0.1766,-0.1687,-0.1497,-0.1818,-0.1817,-0.1815,0,-0.1607,-0.1663,-0.1754,-0.1847,-0.1868,-0.1919,-0.2014,-0.2069,-0.2094,-0.2083,-0.2108,-0.2075,-0.2127,-0.2119,-0.2075,-0.2101,-0.2037,-0.1977,-0.1966,-0.184,-0.1759,-0.1505,-0.1465,-0.1797,-0.1799,-0.18,-0.1801,0,-0.1631,-0.1719,-0.1805,-0.1842,-0.194,-0.2002,-0.2061,-0.2111,-0.2105,-0.212,-0.2056,-0.2092,-0.2052,-0.201,-0.1951,-0.1984,-0.1808,-0.1824,-0.166,-0.1649,-0.1526,-0.1506,-0.1756,-0.1757,-0.1757,-0.1758,-0.1758,0,-0.1679,-0.1739,-0.1826,-0.1885,-0.1936,-0.204,-0.2072,-0.2114,-0.2122,-0.2051,-0.2105,-0.201,-0.201,-0.1909,-0.1889,-0.1732,-0.1757,-0.1664,-0.1594,-0.1547,-0.1532,-0.1762,-0.1765,-0.175,-0.1752,-0.1753,-0.1754,0,-0.1683,-0.1747,-0.1824,-0.1941,-0.1943,-0.1995,-0.2001,-0.1991,-0.2056,-0.1953,-0.1929,-0.1897,-0.1776,-0.174,-0.1617,-0.1605,-0.1488,-0.1421,-0.1357,-0.1285,-0.1383,-0.1393,-0.1218,-0.1213,-0.1208,-0.1205,-0.1201,0,-0.1691,-0.1746,-0.1806,-0.1772,-0.1813,-0.1863,-0.1833,-0.1914,-0.1869,-0.1846,-0.1755,-0.1653,-0.1532,-0.1356,-0.1302,-0.1192,-0.1285,-0.1036,-0.1129,-0.1381,-0.133,-0.1347,-0.1363,-0.0978,-0.0974,-0.097,-0.0967,0,-0.1694,-0.171,-0.1729,-0.1669,-0.1634,-0.1591,-0.159,-0.1543,-0.1606,-0.1551,-0.1454,-0.1382,-0.1239,-0.1093,-0.0979,-0.0924,-0.1066,-0.095,-0.1188,-0.114,-0.1142,-0.1097,-0.1122,-0.0932,-0.0935,-0.0938,-0.094,-0.0941,-0.1626,-0.1593,-0.1583,-0.15,-0.1433,-0.1354,-0.1341,-0.1321,-0.127,-0.1246,-0.1192,-0.1111,-0.1037,-0.0852,-0.0745,-0.069,-0.0782,-0.0758,-0.0776,-0.0796,-0.0818,-0.0813,-0.0543,-0.0544,-0.0545,-0.0546,-0.0547,0,-0.1536,-0.1478,-0.1393,-0.1304,-0.1206,-0.1232,-0.1166,-0.1168,-0.1125,-0.1064,-0.1021,-0.0846,-0.0706,-0.0653,-0.052,-0.0458,-0.0526,-0.042,-0.0527,-0.0559,-0.0588,-0.0607,-0.0271,-0.027,-0.027,-0.0269,0,0,-0.1465,-0.1351,-0.1293,-0.1102,-0.1057,-0.0991,-0.0978,-0.0963,-0.0951,-0.089,-0.0842,-0.0821,-0.0713,-0.0553,-0.0454,-0.0354,-0.0485,-0.0334,-0.0555,-0.0721,-0.0752,-0.0769,-0.083,0,0,0,0,0]},{"header":{"parameterUnit":"m.s-1","parameterCategory":2,"la1":30.2991,"la2":30.254,"lo1":-89.0895,"lo2":-89.0444,"dy":0.0017,"dx":0.0017,"nx":28,"ny":28,"refTime":"2023-10-16T09:00:00:Z","depth":"2","parameterNumber":3,"parameterNumberName":"V-component_of_CURRENTS"},"data":[0,0,0,0,0,0,0,0,0,0,0,0,0,0,0,0,0,0,0,0,0,0,0,0,0,0,0,0,0,0,0,0,0,0,0,0,0,0,0,0,0,0,0,0,0,0,0,0,0,0,0,0,0,0,0,0,0,0,-0.0424,-0.0424,0,-0.0445,-0.0445,-0.0446,-0.0448,-0.0447,-0.0447,-0.0447,-0.0417,-0.0416,-0.0415,0,0,0,0,0,0,0,0,0,0,0,0,0,-0.037,-0.0371,-0.0424,-0.0424,-0.0425,-0.0445,-0.0445,-0.0446,-0.0448,-0.0447,-0.0447,-0.0447,-0.0417,-0.0416,-0.0415,0,0,0,0,0,0,0,0,0,0,0,0,0,-0.0392,-0.0372,-0.0424,-0.0429,-0.043,-0.0445,-0.0445,-0.0446,-0.0448,-0.0447,-0.0447,-0.0447,-0.0417,-0.0416,-0.0415,-0.0412,0,0,-0.0412,-0.0411,0,0,0,0,0,0,0,0,-0.0391,-0.0394,-0.0428,-0.0429,-0.043,-0.0445,-0.0415,-0.0432,-0.0448,-0.044,-0.0447,-0.0447,-0.0422,-0.0421,-0.0424,-0.0411,-0.0409,-0.0412,-0.0411,-0.0411,-0.041,0,0,0,0,0,0,0,-0.0389,-0.0393,-0.0431,-0.0428,-0.0429,-0.0425,-0.0428,-0.0419,-0.043,-0.044,-0.0441,-0.0445,-0.0422,-0.0425,-0.0423,-0.0409,-0.0412,-0.0411,-0.041,-0.041,-0.0426,-0.0427,0,0,0,0,0,0,-0.039,-0.0391,-0.0431,-0.0432,-0.0411,-0.0427,-0.043,-0.0439,-0.0431,-0.043,-0.0445,-0.0445,-0.0427,-0.0424,-0.0422,-0.0446,-0.0411,-0.041,-0.0409,-0.0425,-0.0426,-0.0428,0,0,0,0,0,0,-0.0389,-0.0393,-0.043,-0.0413,-0.0417,-0.0428,-0.0438,-0.044,-0.0446,-0.0435,-0.0434,-0.0451,-0.0427,-0.0424,-0.0431,-0.0443,-0.0409,-0.0408,-0.0424,-0.0425,-0.0427,-0.0475,0,0,0,0,0,0,-0.0387,-0.0393,-0.04,-0.0413,-0.0418,-0.0444,-0.0439,-0.044,-0.045,-0.045,-0.044,-0.0437,-0.0426,-0.0433,-0.043,-0.0441,-0.0407,-0.0422,-0.0425,-0.0426,-0.0472,-0.0478,-0.0483,0,0,0,0,0,-0.0385,-0.0394,-0.04,-0.0405,-0.0427,-0.0444,-0.0447,-0.0452,-0.045,-0.0457,-0.0459,-0.0437,-0.0443,-0.0433,-0.0429,-0.0441,-0.0421,-0.0424,-0.0426,-0.047,-0.0477,-0.0483,0,0,0,0,0,0,-0.0372,-0.0396,-0.0402,-0.0418,-0.0433,-0.0445,-0.0452,-0.0456,-0.0463,-0.0462,-0.045,-0.0448,-0.0461,-0.0445,-0.0434,-0.0453,-0.0429,-0.043,-0.0463,-0.047,-0.0475,-0.0429,-0.0406,0,0,0,0,0,-0.0373,-0.0388,-0.0408,-0.0421,-0.043,-0.0442,-0.0449,-0.0455,-0.0463,-0.0466,-0.0462,-0.046,-0.0468,-0.0465,-0.0465,-0.047,-0.0424,-0.0477,-0.0482,-0.0487,-0.0448,-0.0371,-0.0365,-0.0435,-0.0435,-0.0435,0,0,-0.0371,-0.0387,-0.0394,-0.0419,-0.043,-0.0459,-0.0445,-0.046,-0.0486,-0.046,-0.0487,-0.0479,-0.0475,-0.0491,-0.0494,-0.0478,-0.0461,-0.049,-0.0494,-0.0452,-0.0373,-0.0365,-0.0358,-0.0437,-0.0437,-0.0437,0,0,-0.0378,-0.0389,-0.0407,-0.0429,-0.0453,-0.0465,-0.0471,-0.0488,-0.0497,-0.0522,-0.0515,-0.05,-0.0524,-0.0507,-0.0507,-0.0537,-0.0496,-0.0559,-0.0542,-0.047,-0.0462,-0.0454,-0.0456,-0.0448,-0.0557,-0.0557,-0.0557,0,-0.0374,-0.0414,-0.0413,-0.0445,-0.0474,-0.0472,-0.051,-0.052,-0.0538,-0.0534,-0.0538,-0.053,-0.0523,-0.0517,-0.0531,-0.0544,-0.052,-0.052,-0.0472,-0.0463,-0.0454,-0.0458,-0.0448,-0.0559,-0.0559,-0.0559,-0.0559,0,-0.0403,-0.0445,-0.0459,-0.0506,-0.0525,-0.056,-0.0578,-0.0584,-0.0593,-0.0592,-0.0583,-0.0564,-0.0535,-0.0556,-0.0553,-0.0502,-0.0518,-0.0492,-0.0448,-0.0449,-0.0455,-0.0444,-0.0563,-0.0562,-0.0561,-0.0561,0,0,-0.0388,-0.0468,-0.0477,-0.0521,-0.0571,-0.0589,-0.0619,-0.0638,-0.0631,-0.0632,-0.0616,-0.0611,-0.0553,-0.0544,-0.0528,-0.0471,-0.0419,-0.0454,-0.0449,-0.0443,-0.031,-0.035,-0.0342,-0.0381,-0.0378,-0.0375,-0.0364,0,-0.0425,-0.0514,-0.0532,-0.0612,-0.0669,-0.0672,-0.069,-0.0693,-0.0685,-0.0661,-0.0614,-0.0584,-0.0567,-0.0533,-0.0474,-0.0427,-0.038,-0.0427,-0.0317,-0.0315,-0.0337,-0.0325,-0.0274,-0.0259,-0.0353,-0.0351,-0.035,0,-0.0457,-0.0527,-0.0624,-0.0686,-0.07,-0.0725,-0.0736,-0.074,-0.0694,-0.0673,-0.0609,-0.0565,-0.0487,-0.0459,-0.0348,-0.0382,-0.0331,-0.0299,-0.0298,-0.0289,-0.033,-0.0259,-0.0234,-0.033,-0.0332,-0.0333,-0.0334,0,-0.0488,-0.0579,-0.0666,-0.0702,-0.0766,-0.0776,-0.077,-0.074,-0.0725,-0.0644,-0.0613,-0.0521,-0.0468,-0.037,-0.0308,-0.0308,-0.0203,-0.0194,-0.0193,-0.0199,-0.0104,-0.0107,-0.0079,-0.0079,-0.0079,-0.0079,-0.0079,0,-0.0545,-0.0608,-0.0685,-0.075,-0.0788,-0.0796,-0.079,-0.0759,-0.0705,-0.0672,-0.0589,-0.0551,-0.0429,-0.0371,-0.0301,-0.023,-0.0188,-0.0171,-0.0172,-0.0134,-0.0139,-0.0141,-0.0148,-0.0079,-0.0079,-0.0079,-0.0079,0,-0.0582,-0.0639,-0.0738,-0.0817,-0.0819,-0.0833,-0.0804,-0.078,-0.0723,-0.0675,-0.0639,-0.0562,-0.0482,-0.0405,-0.0278,-0.0234,-0.0152,-0.0135,-0.0145,-0.0146,-0.0208,-0.0219,-0.0118,-0.0118,-0.0119,-0.0119,-0.012,0,-0.0613,-0.0688,-0.0788,-0.0799,-0.0835,-0.0842,-0.0826,-0.0786,-0.076,-0.0692,-0.067,-0.0593,-0.0538,-0.0413,-0.0311,-0.0211,-0.0189,-0.0104,-0.0066,-0.0187,-0.0199,-0.0208,-0.0218,0.0004,0.0005,0.0005,0.0006,0,-0.0693,-0.0732,-0.0801,-0.0826,-0.0831,-0.084,-0.082,-0.0813,-0.0756,-0.0726,-0.0672,-0.0624,-0.0528,-0.0391,-0.0283,-0.0212,-0.0114,-0.0094,-0.0158,-0.0008,-0.0073,-0.0086,-0.0098,0.001,0.001,0.001,0.0009,0.0009,-0.072,-0.0759,-0.0818,-0.0815,-0.0815,-0.0805,-0.0799,-0.0776,-0.074,-0.066,-0.0666,-0.0532,-0.0485,-0.0273,-0.0207,-0.0104,-0.0135,-0.0043,-0.0043,-0.0044,-0.0045,-0.0108,-0.0036,-0.0037,-0.0037,-0.0038,-0.0038,0,-0.0757,-0.0771,-0.078,-0.0783,-0.0767,-0.0778,-0.0762,-0.0739,-0.0694,-0.0601,-0.0543,-0.0399,-0.0266,-0.0173,-0.0019,0.0005,0.0031,0.0048,0.0098,0.0092,0.0087,0.0095,0.014,0.0141,0.0141,0.0142,0,0,-0.0759,-0.0779,-0.0765,-0.0721,-0.072,-0.0712,-0.0707,-0.0657,-0.0574,-0.0469,-0.0334,-0.0277,-0.0189,-0.0047,-0.0018,0.0097,0.0092,0.0114,-0.0031,0.0017,0.0013,0.0032,0.0035,0,0,0,0,0]}],[{"header":{"parameterUnit":"m.s-1","parameterCategory":2,"la1":30.2991,"la2":30.254,"lo1":-89.0895,"lo2":-89.0444,"dy":0.0017,"dx":0.0017,"nx":28,"ny":28,"refTime":"2023-10-16T09:00:00:Z","depth":"4","parameterNumber":2,"parameterNumberName":"U-component_of_CURRENTS"},"data":[0,0,0,0,0,0,0,0,0,0,0,0,0,0,0,0,0,0,0,0,0,0,0,0,0,0,0,0,0,0,0,0,0,0,0,0,0,0,0,0,0,0,0,0,0,0,0,0,0,0,0,0,0,0,0,0,0,0,-0.118,-0.118,0,-0.1198,-0.1198,-0.1198,-0.1218,-0.1219,-0.1219,-0.1219,-0.1289,-0.1291,-0.1292,0,0,0,0,0,0,0,0,0,0,0,0,0,-0.1181,-0.1181,-0.118,-0.118,-0.1181,-0.1198,-0.1198,-0.1198,-0.1218,-0.1219,-0.1219,-0.1219,-0.1289,-0.1291,-0.1292,0,0,0,0,0,0,0,0,0,0,0,0,0,-0.1188,-0.1181,-0.118,-0.1192,-0.1193,-0.1198,-0.1198,-0.1198,-0.1218,-0.1219,-0.1219,-0.1219,-0.1288,-0.129,-0.1293,-0.13,0,0,-0.13,-0.1301,0,0,0,0,0,0,0,0,-0.1188,-0.1188,-0.119,-0.1191,-0.1193,-0.1206,-0.1224,-0.1235,-0.1218,-0.1209,-0.1219,-0.1219,-0.1265,-0.127,-0.1272,-0.1304,-0.1307,-0.13,-0.1302,-0.1303,-0.1304,0,0,0,0,0,0,0,-0.1187,-0.1188,-0.1188,-0.119,-0.1192,-0.1202,-0.1204,-0.1226,-0.1237,-0.121,-0.1212,-0.1212,-0.1267,-0.127,-0.1274,-0.1308,-0.13,-0.1303,-0.1304,-0.1305,-0.1409,-0.141,0,0,0,0,0,0,-0.1183,-0.1187,-0.1187,-0.1188,-0.119,-0.1202,-0.1203,-0.1202,-0.1235,-0.124,-0.1212,-0.1213,-0.1265,-0.1271,-0.1277,-0.1318,-0.1303,-0.1305,-0.1307,-0.1407,-0.1409,-0.141,0,0,0,0,0,0,-0.1182,-0.1182,-0.1186,-0.1188,-0.1189,-0.1201,-0.1199,-0.1202,-0.122,-0.1236,-0.1242,-0.1229,-0.1266,-0.1273,-0.1314,-0.132,-0.1306,-0.1309,-0.1406,-0.1408,-0.141,-0.1382,0,0,0,0,0,0,-0.1182,-0.1182,-0.119,-0.1187,-0.1189,-0.1201,-0.1199,-0.1202,-0.1219,-0.1221,-0.1253,-0.1258,-0.1267,-0.1311,-0.1317,-0.1323,-0.1311,-0.1404,-0.1407,-0.1409,-0.1381,-0.1382,-0.1384,0,0,0,0,0,-0.1182,-0.1187,-0.1191,-0.1191,-0.1196,-0.1201,-0.1203,-0.1214,-0.1219,-0.1231,-0.1256,-0.1258,-0.133,-0.1314,-0.1321,-0.1328,-0.1403,-0.1406,-0.1409,-0.138,-0.1382,-0.1384,0,0,0,0,0,0,-0.1196,-0.119,-0.1193,-0.1198,-0.1205,-0.1205,-0.1217,-0.1222,-0.1249,-0.1258,-0.1273,-0.1281,-0.1321,-0.1336,-0.1317,-0.1369,-0.1368,-0.1373,-0.1344,-0.1346,-0.1347,-0.1293,-0.1313,0,0,0,0,0,-0.1201,-0.1203,-0.1201,-0.1209,-0.1212,-0.1218,-0.1225,-0.1232,-0.1248,-0.126,-0.1283,-0.1312,-0.1335,-0.135,-0.1379,-0.1404,-0.1389,-0.1417,-0.1418,-0.1419,-0.1382,-0.1377,-0.1372,-0.142,-0.142,-0.142,0,0,-0.1209,-0.1206,-0.1209,-0.1212,-0.1218,-0.1227,-0.1224,-0.1238,-0.1248,-0.1265,-0.1299,-0.1323,-0.1347,-0.1376,-0.1394,-0.1388,-0.1404,-0.1422,-0.1422,-0.1385,-0.1379,-0.1373,-0.1369,-0.1422,-0.1421,-0.1421,0,0,-0.1217,-0.1223,-0.1225,-0.1234,-0.1243,-0.1246,-0.1253,-0.1265,-0.1273,-0.1309,-0.1319,-0.1325,-0.1394,-0.1376,-0.1384,-0.1408,-0.1417,-0.1453,-0.1404,-0.14,-0.1395,-0.139,-0.1378,-0.1373,-0.1446,-0.1446,-0.1446,0,-0.123,-0.1228,-0.123,-0.1238,-0.1239,-0.1255,-0.1257,-0.1273,-0.1301,-0.1287,-0.1326,-0.1357,-0.1375,-0.1357,-0.1368,-0.1401,-0.1416,-0.1391,-0.1396,-0.1391,-0.1386,-0.1376,-0.137,-0.1445,-0.1445,-0.1445,-0.1445,0,-0.1233,-0.1244,-0.1248,-0.1257,-0.126,-0.1271,-0.1279,-0.1291,-0.131,-0.1308,-0.1315,-0.1336,-0.1337,-0.136,-0.1371,-0.1347,-0.1376,-0.1402,-0.1379,-0.1379,-0.137,-0.1364,-0.1443,-0.1444,-0.1444,-0.1444,0,0,-0.1229,-0.1245,-0.125,-0.1238,-0.1268,-0.1254,-0.1275,-0.126,-0.1239,-0.1283,-0.1258,-0.1277,-0.1273,-0.1278,-0.1294,-0.1281,-0.1262,-0.133,-0.1331,-0.1294,-0.1265,-0.1177,-0.1162,-0.1312,-0.131,-0.1309,-0.1276,0,-0.1231,-0.1234,-0.1243,-0.1239,-0.1233,-0.1241,-0.1238,-0.1228,-0.1241,-0.1233,-0.1228,-0.1234,-0.1253,-0.1258,-0.1244,-0.1269,-0.1244,-0.1268,-0.1291,-0.129,-0.1191,-0.1151,-0.1305,-0.1271,-0.127,-0.1269,-0.1268,0,-0.1226,-0.1222,-0.1225,-0.1187,-0.118,-0.1181,-0.114,-0.1141,-0.1133,-0.1143,-0.1139,-0.1167,-0.1143,-0.1183,-0.117,-0.1202,-0.1214,-0.1228,-0.1228,-0.1137,-0.1188,-0.1273,-0.1257,-0.1258,-0.1258,-0.1259,-0.126,0,-0.1198,-0.1193,-0.1184,-0.1186,-0.1169,-0.1145,-0.1122,-0.1105,-0.1091,-0.1092,-0.1099,-0.1089,-0.1099,-0.1114,-0.1141,-0.1174,-0.1139,-0.1188,-0.1104,-0.11,-0.1203,-0.1208,-0.115,-0.115,-0.115,-0.115,-0.1151,0,-0.1185,-0.1174,-0.1164,-0.1165,-0.1098,-0.1097,-0.1045,-0.1024,-0.1027,-0.1003,-0.1046,-0.104,-0.109,-0.1095,-0.112,-0.1075,-0.1117,-0.1056,-0.1068,-0.1198,-0.1204,-0.1199,-0.1205,-0.1149,-0.115,-0.115,-0.115,0,-0.116,-0.118,-0.1143,-0.1112,-0.1096,-0.1037,-0.1002,-0.0976,-0.0982,-0.097,-0.098,-0.1008,-0.1002,-0.103,-0.1044,-0.1025,-0.101,-0.0984,-0.1098,-0.1125,-0.0984,-0.099,-0.0879,-0.0875,-0.0872,-0.0869,-0.0867,0,-0.1146,-0.1145,-0.1097,-0.1063,-0.105,-0.0991,-0.0966,-0.0955,-0.0947,-0.0941,-0.0937,-0.0938,-0.0951,-0.0883,-0.0923,-0.0917,-0.0918,-0.0897,-0.0935,-0.0923,-0.0948,-0.0959,-0.0968,-0.0862,-0.0861,-0.086,-0.0859,0,-0.1099,-0.1098,-0.105,-0.1002,-0.0965,-0.0919,-0.0887,-0.0874,-0.0874,-0.0905,-0.0865,-0.0849,-0.0823,-0.0825,-0.0805,-0.0816,-0.0905,-0.0864,-0.0871,-0.0907,-0.0902,-0.0932,-0.0945,-0.0848,-0.085,-0.0851,-0.0851,0,-0.1045,-0.0977,-0.0942,-0.0874,-0.0862,-0.0837,-0.0823,-0.0803,-0.0789,-0.0805,-0.0791,-0.0792,-0.0815,-0.077,-0.0766,-0.0744,-0.0749,-0.0741,-0.0755,-0.0768,-0.0745,-0.0723,-0.0585,0,0,0,0,0,-0.0968,-0.0883,-0.0822,-0.0743,-0.0763,-0.0761,-0.0769,-0.0779,-0.0802,-0.0756,-0.0766,-0.0743,-0.0702,-0.0707,-0.0664,-0.0718,-0.0756,-0.0664,-0.0756,-0.0786,-0.0799,-0.0783,0,0,0,0,0,0,-0.0901,-0.0833,-0.0773,-0.0687,-0.0652,-0.0655,-0.0669,-0.0689,-0.0662,-0.0693,-0.0679,-0.0699,-0.0679,-0.0719,-0.0651,-0.0651,-0.0692,-0.0671,-0.0669,-0.0779,-0.0791,-0.0801,-0.0788,0,0,0,0,0]},{"header":{"parameterUnit":"m.s-1","parameterCategory":2,"la1":30.2991,"la2":30.254,"lo1":-89.0895,"lo2":-89.0444,"dy":0.0017,"dx":0.0017,"nx":28,"ny":28,"refTime":"2023-10-16T09:00:00:Z","depth":"4","parameterNumber":3,"parameterNumberName":"V-component_of_CURRENTS"},"data":[0,0,0,0,0,0,0,0,0,0,0,0,0,0,0,0,0,0,0,0,0,0,0,0,0,0,0,0,0,0,0,0,0,0,0,0,0,0,0,0,0,0,0,0,0,0,0,0,0,0,0,0,0,0,0,0,0,0,-0.0259,-0.0259,0,-0.0286,-0.0286,-0.0286,-0.0295,-0.0295,-0.0295,-0.0295,-0.0285,-0.0285,-0.0285,0,0,0,0,0,0,0,0,0,0,0,0,0,-0.0211,-0.0212,-0.0259,-0.0259,-0.026,-0.0286,-0.0286,-0.0286,-0.0295,-0.0295,-0.0295,-0.0295,-0.0285,-0.0285,-0.0285,0,0,0,0,0,0,0,0,0,0,0,0,0,-0.0234,-0.0213,-0.0259,-0.0268,-0.0269,-0.0285,-0.0286,-0.0286,-0.0295,-0.0295,-0.0295,-0.0295,-0.0286,-0.0285,-0.0285,-0.0285,0,0,-0.0284,-0.0284,0,0,0,0,0,0,0,0,-0.0233,-0.0236,-0.0266,-0.0267,-0.0268,-0.0287,-0.0266,-0.0284,-0.0295,-0.0285,-0.0295,-0.0295,-0.0283,-0.0283,-0.0288,-0.0284,-0.0284,-0.0284,-0.0284,-0.0284,-0.0284,0,0,0,0,0,0,0,-0.0231,-0.0234,-0.0269,-0.0267,-0.0268,-0.0269,-0.0272,-0.0269,-0.0283,-0.0286,-0.0286,-0.029,-0.0283,-0.0288,-0.0288,-0.0284,-0.0284,-0.0284,-0.0284,-0.0283,-0.0328,-0.0329,0,0,0,0,0,0,-0.0229,-0.0233,-0.0268,-0.027,-0.0251,-0.027,-0.0273,-0.0281,-0.0284,-0.0285,-0.029,-0.0291,-0.0289,-0.0288,-0.0287,-0.0333,-0.0284,-0.0283,-0.0283,-0.0327,-0.0328,-0.033,0,0,0,0,0,0,-0.0228,-0.0232,-0.0267,-0.0252,-0.0257,-0.0271,-0.0279,-0.0282,-0.0294,-0.0288,-0.0288,-0.0301,-0.0289,-0.0288,-0.0306,-0.033,-0.0283,-0.0283,-0.0325,-0.0327,-0.0329,-0.0394,0,0,0,0,0,0,-0.0227,-0.0232,-0.024,-0.0252,-0.0258,-0.0285,-0.028,-0.0282,-0.0296,-0.0297,-0.0297,-0.0296,-0.0289,-0.0307,-0.0306,-0.0329,-0.0283,-0.0323,-0.0326,-0.0328,-0.039,-0.0398,-0.0404,0,0,0,0,0,-0.0225,-0.0235,-0.0241,-0.0245,-0.0268,-0.0286,-0.0289,-0.0298,-0.0297,-0.0307,-0.0316,-0.0296,-0.0322,-0.0308,-0.0306,-0.033,-0.0322,-0.0325,-0.0328,-0.0387,-0.0396,-0.0404,0,0,0,0,0,0,-0.0217,-0.0237,-0.0244,-0.0259,-0.0276,-0.0288,-0.0298,-0.0303,-0.0318,-0.032,-0.0312,-0.0313,-0.034,-0.0326,-0.031,-0.0351,-0.0319,-0.0322,-0.0364,-0.0373,-0.038,-0.0393,-0.0283,0,0,0,0,0,-0.022,-0.0235,-0.0252,-0.0266,-0.0275,-0.0288,-0.0298,-0.0305,-0.0318,-0.0324,-0.0327,-0.0333,-0.035,-0.0354,-0.0361,-0.0379,-0.0354,-0.0394,-0.0401,-0.0408,-0.0419,-0.0413,-0.042,-0.034,-0.034,-0.034,0,0,-0.022,-0.0234,-0.0242,-0.0266,-0.0279,-0.0307,-0.0294,-0.0313,-0.0344,-0.032,-0.0359,-0.0358,-0.0362,-0.0391,-0.0401,-0.0382,-0.0413,-0.0412,-0.0417,-0.0425,-0.0417,-0.0425,-0.0431,-0.0342,-0.0342,-0.0341,0,0,-0.0232,-0.0242,-0.0261,-0.0283,-0.0308,-0.0319,-0.0328,-0.0347,-0.0364,-0.0397,-0.0396,-0.0418,-0.0427,-0.0447,-0.0456,-0.0507,-0.0454,-0.0498,-0.0543,-0.0537,-0.0544,-0.0549,-0.0506,-0.0507,-0.0499,-0.0499,-0.0499,0,-0.0233,-0.0269,-0.0269,-0.0301,-0.0331,-0.0329,-0.0369,-0.0385,-0.0411,-0.0432,-0.0418,-0.0459,-0.0464,-0.0511,-0.0534,-0.0526,-0.0491,-0.0509,-0.0546,-0.0551,-0.0556,-0.051,-0.051,-0.0502,-0.0502,-0.0501,-0.0501,0,-0.0265,-0.0303,-0.0317,-0.0364,-0.0387,-0.0422,-0.0447,-0.0472,-0.0485,-0.0501,-0.0543,-0.0548,-0.0572,-0.0578,-0.0575,-0.0614,-0.0567,-0.0557,-0.0522,-0.0568,-0.0516,-0.0516,-0.0507,-0.0506,-0.0505,-0.0504,0,0,-0.0256,-0.0329,-0.0338,-0.0383,-0.0432,-0.0457,-0.0508,-0.0559,-0.059,-0.0606,-0.0645,-0.0687,-0.0672,-0.0681,-0.0671,-0.0672,-0.0675,-0.0628,-0.0626,-0.0582,-0.0624,-0.0571,-0.0564,-0.066,-0.0661,-0.0661,-0.0568,0,-0.0292,-0.0373,-0.0396,-0.0479,-0.0531,-0.0556,-0.0603,-0.0642,-0.0661,-0.0689,-0.0699,-0.0722,-0.0714,-0.0715,-0.0723,-0.0692,-0.0679,-0.0699,-0.0591,-0.0587,-0.0532,-0.0565,-0.0664,-0.0567,-0.0566,-0.0566,-0.0566,0,-0.0324,-0.0384,-0.0476,-0.0563,-0.0583,-0.0625,-0.0699,-0.0736,-0.0769,-0.078,-0.0799,-0.0782,-0.0804,-0.0773,-0.0748,-0.0753,-0.07,-0.0664,-0.0659,-0.059,-0.0534,-0.0517,-0.0564,-0.0564,-0.0564,-0.0564,-0.0564,0,-0.0343,-0.0438,-0.052,-0.0555,-0.0645,-0.0687,-0.0723,-0.0768,-0.079,-0.0824,-0.0821,-0.0841,-0.0829,-0.0796,-0.0732,-0.0734,-0.0668,-0.0659,-0.0556,-0.0549,-0.0593,-0.0589,-0.063,-0.063,-0.0631,-0.0631,-0.0631,0,-0.0387,-0.0452,-0.0536,-0.0592,-0.0668,-0.0715,-0.0774,-0.081,-0.0834,-0.0844,-0.0858,-0.0849,-0.0832,-0.0786,-0.0734,-0.064,-0.067,-0.0568,-0.0533,-0.0619,-0.0619,-0.059,-0.0587,-0.0627,-0.0628,-0.0629,-0.0629,0,-0.0406,-0.0463,-0.0559,-0.0662,-0.0686,-0.0737,-0.0785,-0.0808,-0.084,-0.0846,-0.0849,-0.0849,-0.0797,-0.0747,-0.0678,-0.0627,-0.0552,-0.0501,-0.0573,-0.0542,-0.0429,-0.043,-0.0386,-0.0384,-0.0382,-0.038,-0.0379,0,-0.0426,-0.0487,-0.0598,-0.0627,-0.0675,-0.0739,-0.0764,-0.0809,-0.0817,-0.0833,-0.0822,-0.0787,-0.0771,-0.0629,-0.0599,-0.0486,-0.0468,-0.0418,-0.0459,-0.0439,-0.0409,-0.0414,-0.0418,-0.0375,-0.0375,-0.0374,-0.0374,0,-0.0474,-0.0513,-0.0581,-0.0639,-0.0678,-0.0718,-0.0755,-0.0756,-0.0788,-0.081,-0.0772,-0.072,-0.0652,-0.0593,-0.0501,-0.0428,-0.0459,-0.0396,-0.0401,-0.0439,-0.0426,-0.0399,-0.0405,-0.0367,-0.0368,-0.0368,-0.0369,0,-0.049,-0.0527,-0.0595,-0.0634,-0.067,-0.0684,-0.0713,-0.0711,-0.0722,-0.0733,-0.0717,-0.0674,-0.0665,-0.0558,-0.0481,-0.0404,-0.0387,-0.0362,-0.0368,-0.0375,-0.0412,-0.0396,-0.0303,0,0,0,0,0,-0.0509,-0.0534,-0.0573,-0.0618,-0.0645,-0.0668,-0.0693,-0.0713,-0.0737,-0.0691,-0.0701,-0.0635,-0.0533,-0.0513,-0.042,-0.0448,-0.0381,-0.0337,-0.0356,-0.0328,-0.0336,-0.0379,0,0,0,0,0,0,-0.0513,-0.0561,-0.057,-0.0584,-0.0603,-0.0634,-0.0651,-0.0671,-0.0647,-0.0663,-0.0611,-0.0601,-0.051,-0.0581,-0.0417,-0.04,-0.0394,-0.0304,-0.0301,-0.0323,-0.0331,-0.0337,-0.0384,0,0,0,0,0]}]]